Portsmouth, NH

1:17 AM EDT on October 24, 2017 (GMT -0400)
Pease International Tradeport

Weather History for KPSM - April, 2014

Change the Weather History Date:

Saturday, April 5, 2014

  Actual Average Record
Temperature  
Mean Temperature 44 °F -  
Max Temperature 52 °F 48 °F 76 °F (1991)
Min Temperature 37 °F 31 °F 15 °F (1995)
Degree Days  
Heating Degree Days 22    
Moisture  
Dew Point 35 °F    
Average Humidity 81    
Maximum Humidity 100    
Minimum Humidity 42    
Precipitation  
Precipitation 0.13 in - - ()
Sea Level Pressure  
Sea Level Pressure 29.75 in    
Wind  
Wind Speed 10 mph (NW)    
Max Wind Speed 23 mph    
Max Gust Speed 30 mph    
Visibility 6 miles    
Events Fog , Rain    
Averages and records for this station are not official NWS values.
T = Trace of Precipitation, MM = Missing Value Source: NWS Daily Summary

Daily Weather History Graph

Daily Weather History Graph

Search for Another Location

Airport or City:

Trip Planner

Search our weather history database for the weather conditions in past years. The results will help you decide how hot, cold, wet, or windy it might be!

Date:

Astronomy

Apr. 05, 2014 Rise Set
Actual Time 6:18 AM EDT 7:14 PM EDT
Civil Twilight 5:49 AM EDT 7:43 PM EDT
Nautical Twilight 5:15 AM EDT 8:17 PM EDT
Astronomical Twilight 4:39 AM EDT 8:53 PM EDT
Moon 10:17 AM EDT (4/5) 12:27 AM EDT (4/5)
Length of Visible Light 13h 53m
Length of Day
12h 55m
Waxing Crescent, 34% of the Moon is Illuminated
Apr 5
Waxing Crescent
Apr 7
First Quarter
Apr 15
Full
Apr 22
Last Quarter
Apr 29
New

Hourly Weather History & Observations

Time (EDT) Temp. Windchill Dew Point Humidity Pressure Visibility Wind Dir Wind Speed Gust Speed Precip Events Conditions
12:58 AM 37.8 °F 31.3 °F 37.6 °F 99% 29.91 in 3.0 mi East 9.2 mph - 0.01 in Rain Light Rain
1:58 AM 37.6 °F 30.0 °F 37.6 °F 100% 29.86 in 3.0 mi East 11.5 mph - 0.01 in Rain Light Rain
2:47 AM 37.4 °F 29.8 °F 37.4 °F 100% 29.82 in 1.5 mi ENE 11.5 mph - N/A Rain Light Rain
2:58 AM 37.6 °F 32.3 °F 37.6 °F 100% 29.85 in 1.5 mi North 6.9 mph - 0.03 in Rain Light Rain
3:58 AM 37.8 °F 31.3 °F 37.8 °F 100% 29.80 in 3.0 mi NNE 9.2 mph - 0.08 in Rain Light Rain
4:28 AM 37.4 °F 31.4 °F 37.4 °F 100% 29.74 in 5.0 mi NNE 8.1 mph - N/A   Overcast
4:58 AM 38.3 °F 33.9 °F 38.3 °F 100% 29.73 in 2.0 mi NNE 5.8 mph - 0.00 in   Overcast
5:13 AM 39.2 °F 35.0 °F 39.2 °F 100% 29.73 in 2.0 mi North 5.8 mph - N/A   Overcast
5:34 AM 39.2 °F 34.2 °F 39.2 °F 100% 29.72 in 1.0 mi North 6.9 mph - N/A   Overcast
5:43 AM 39.2 °F 35.0 °F 39.2 °F 100% 29.72 in 0.6 mi NNW 5.8 mph - N/A   Overcast
5:58 AM 38.5 °F 34.1 °F 38.5 °F 100% 29.73 in 0.5 mi North 5.8 mph - N/A Fog Fog
6:13 AM 37.4 °F 31.4 °F 37.4 °F 100% 29.70 in 0.5 mi North 8.1 mph - N/A Fog Light Drizzle
6:43 AM 37.4 °F 31.4 °F 37.4 °F 100% 29.69 in 1.0 mi NNW 8.1 mph - N/A   Overcast
6:58 AM 37.8 °F 30.7 °F 37.8 °F 100% 29.70 in 1.2 mi NNW 10.4 mph - 0.00 in   Overcast
7:58 AM 38.1 °F 30.7 °F 38.1 °F 100% 29.70 in 1.5 mi NNW 11.5 mph - N/A   Overcast
8:28 AM 39.2 °F 33.6 °F 39.2 °F 100% 29.70 in 3.0 mi NW 8.1 mph - N/A   Overcast
8:58 AM 38.5 °F 32.1 °F 38.5 °F 100% 29.70 in 6.0 mi NNW 9.2 mph - N/A   Overcast
9:58 AM 40.5 °F 35.1 °F 40.5 °F 100% 29.70 in 10.0 mi WNW 8.1 mph - N/A   Overcast
10:58 AM 41.9 °F 37.5 °F 41.7 °F 99% 29.70 in 10.0 mi West 6.9 mph - N/A   Overcast
11:28 AM 44.6 °F 39.7 °F 44.6 °F 100% 29.68 in 10.0 mi WNW 9.2 mph - N/A   Overcast
11:58 AM 45.3 °F 39.3 °F 42.6 °F 90% 29.68 in 10.0 mi West 12.7 mph - N/A   Mostly Cloudy
12:13 PM 48.2 °F - 41.0 °F 76% 29.66 in 10.0 mi West 11.5 mph - N/A   Mostly Cloudy
12:58 PM 50.7 °F - 39.2 °F 65% 29.68 in 10.0 mi West 13.8 mph 20.7 mph N/A   Mostly Cloudy
1:58 PM 50.0 °F - 34.0 °F 54% 29.68 in 10.0 mi WNW 13.8 mph - N/A   Mostly Cloudy
2:58 PM 49.8 °F - 32.0 °F 50% 29.68 in 10.0 mi West 15.0 mph 21.9 mph N/A   Overcast
3:58 PM 49.5 °F - 28.4 °F 44% 29.70 in 10.0 mi West 17.3 mph 25.3 mph N/A   Mostly Cloudy
4:58 PM 47.8 °F - 28.0 °F 46% 29.71 in 10.0 mi WNW 16.1 mph 24.2 mph N/A   Mostly Cloudy
5:58 PM 46.9 °F - 24.6 °F 42% 29.73 in 10.0 mi West 17.3 mph - N/A   Mostly Cloudy
6:58 PM 45.1 °F 36.6 °F 25.2 °F 46% 29.76 in 10.0 mi West 23.0 mph 29.9 mph N/A   Mostly Cloudy
7:58 PM 42.6 °F 34.3 °F 24.4 °F 49% 29.80 in 10.0 mi West 18.4 mph 26.5 mph N/A   Scattered Clouds
8:58 PM 40.5 °F 32.8 °F 21.4 °F 47% 29.85 in 10.0 mi West 13.8 mph 20.7 mph N/A   Scattered Clouds
9:58 PM 39.2 °F 30.5 °F 21.0 °F 48% 29.86 in 10.0 mi WNW 16.1 mph 23.0 mph N/A   Mostly Cloudy
10:58 PM 38.1 °F 28.1 °F 20.3 °F 49% 29.88 in 10.0 mi WNW 19.6 mph 27.6 mph N/A   Scattered Clouds
11:58 PM 37.9 °F 30.0 °F 20.1 °F 49% 29.89 in 10.0 mi WNW 12.7 mph 26.5 mph N/A   Mostly Cloudy